Terminal Aerodrome Forecast
Issued by NWS

Home | Current Version | Previous Version | Text Only | Print | Product List | Glossary Off
Versions: 1 2 3 4 5 6 7 8 9 10 11 12 13 14 15 16 17 18 19 20 21

000
FTUS42 KMHX 261121
TAFPGV
TAF
KPGV 261121Z 2612/2712 16008KT P6SM VCSH SCT005 BKN025 OVC060
     FM261400 21013G23KT 5SM -SHRA SCT010 OVC020
     FM261900 21014G24KT P6SM BKN050
     FM270000 20008KT P6SM OVC100
     FM270600 21009KT 5SM -RA BR OVC010
      AMD LTD TO CLD VIS AND WIND=

USA.gov is the U.S. government's official web portal to all federal, state and local government web resources and services.